[[{"header":{"parameterUnit":"m.s-1","parameterCategory":1,"la1":30.2991,"la2":30.254,"lo1":-89.0895,"lo2":-89.0444,"dy":0.0017,"dx":0.0017,"nx":28,"ny":28,"refTime":"2024-08-11T21:00:00:Z","depth":0,"parameterNumber":2,"parameterNumberName":"U-component_of_WINDS"},"data":[0,0,0,0,0,0,0,0,0,0,0,0,0,0,0,0,0,0,0,0,0,0,0,0,0,0,0,0,0,0,0,0,0,0,0,0,0,0,0,0,0,0,0,0,0,0,0,0,0,0,0,0,0,0,0,0,0,0,3.558,3.5581,0,3.5666,3.5667,3.5668,3.5561,3.5557,3.5553,3.5549,3.5638,3.5644,3.565,0,0,0,0,0,0,0,0,0,0,0,0,0,3.5324,3.5329,3.558,3.5581,3.5582,3.5666,3.5667,3.5668,3.5562,3.5557,3.5552,3.5548,3.5636,3.5643,3.5651,0,0,0,0,0,0,0,0,0,0,0,0,0,3.5425,3.5331,3.558,3.5539,3.5536,3.5666,3.5667,3.5669,3.5563,3.5557,3.5551,3.5545,3.5634,3.5643,3.5652,3.5826,0,0,3.5679,3.5683,0,0,0,0,0,0,0,0,3.542,3.5435,3.5544,3.5542,3.5539,3.5597,3.5609,3.5721,3.5564,3.5553,3.5549,3.5542,3.5629,3.5638,3.5667,3.583,3.5834,3.568,3.5686,3.5689,3.5692,0,0,0,0,0,0,0,3.5413,3.5431,3.5614,3.5546,3.5543,3.5517,3.5524,3.563,3.5623,3.5553,3.5546,3.5557,3.5627,3.5659,3.5669,3.5835,3.568,3.5688,3.5693,3.5697,3.6142,3.6148,0,0,0,0,0,0,3.541,3.5425,3.5611,3.5617,3.5464,3.5526,3.5535,3.5584,3.5622,3.5622,3.5562,3.5552,3.5646,3.5658,3.5671,3.5876,3.5689,3.5698,3.5703,3.6136,3.6143,3.615,0,0,0,0,0,0,3.5405,3.5428,3.5608,3.5519,3.554,3.5537,3.5593,3.5589,3.5621,3.5628,3.5627,3.5596,3.5642,3.5659,3.5787,3.5877,3.5702,3.571,3.6128,3.6138,3.6147,3.6287,0,0,0,0,0,0,3.5399,3.5427,3.5493,3.5521,3.5545,3.5723,3.5599,3.5595,3.5637,3.5624,3.566,3.566,3.5639,3.5775,3.5797,3.5887,3.5717,3.612,3.6132,3.6144,3.6274,3.63,3.6322,0,0,0,0,0,3.539,3.553,3.5497,3.552,3.5628,3.5728,3.5742,3.5714,3.5645,3.5711,3.5715,3.5659,3.5864,3.5789,3.5812,3.5907,3.6114,3.6129,3.6143,3.6263,3.6295,3.6322,0,0,0,0,0,0,3.5513,3.5533,3.5497,3.565,3.5688,3.571,3.5793,3.5749,3.5808,3.5794,3.5758,3.5767,3.5903,3.5918,3.5833,3.6076,3.5978,3.5998,3.6061,3.6091,3.6115,3.6108,3.5725,0,0,0,0,0,3.5558,3.5638,3.5651,3.5785,3.5806,3.5797,3.5839,3.5815,3.5853,3.5869,3.5883,3.5922,3.5995,3.6044,3.6112,3.6276,3.6281,3.6353,3.6377,3.6396,3.6413,3.6499,3.653,3.6197,3.6197,3.6197,0,0,3.5651,3.5672,3.5725,3.581,3.5837,3.592,3.5811,3.5904,3.5965,3.5883,3.6005,3.6017,3.6058,3.6205,3.627,3.6221,3.6507,3.6415,3.643,3.6437,3.6517,3.6549,3.6577,3.6207,3.6205,3.6204,0,0,3.5864,3.5889,3.6002,3.6031,3.6072,3.6065,3.6092,3.6121,3.6125,3.6247,3.6186,3.6259,3.6386,3.6418,3.6451,3.6675,3.6624,3.6698,3.6823,3.6907,3.6933,3.6956,3.7034,3.7063,3.6715,3.6716,3.6716,0,3.5975,3.6098,3.6066,3.6163,3.6201,3.613,3.6244,3.6274,3.6336,3.6365,3.6309,3.6466,3.6489,3.6641,3.6696,3.6725,3.6755,3.6693,3.6932,3.6955,3.6976,3.705,3.7079,3.6724,3.6723,3.6722,3.6722,0,3.6231,3.6318,3.6404,3.6465,3.6514,3.6619,3.6602,3.6656,3.6627,3.6625,3.6749,3.6775,3.6846,3.688,3.6854,3.7029,3.6997,3.6938,3.6838,3.7017,3.7085,3.7114,3.6736,3.6733,3.6731,3.6729,0,0,3.6524,3.6564,3.6597,3.6622,3.6663,3.6729,3.6831,3.6899,3.6945,3.6991,3.7074,3.7183,3.7128,3.7165,3.7141,3.7216,3.7389,3.7147,3.7147,3.7189,3.7581,3.7624,3.7658,3.7357,3.7362,3.7366,3.7577,0,3.6735,3.691,3.6884,3.7053,3.7131,3.7065,3.7153,3.7188,3.7189,3.7256,3.7257,3.7334,3.7257,3.7278,3.7349,3.7353,3.7467,3.7338,3.7433,3.7437,3.7423,3.7694,3.774,3.7937,3.7604,3.7609,3.7612,0,3.7005,3.7059,3.7235,3.7262,3.7294,3.7374,3.7434,3.7499,3.7536,3.7532,3.7573,3.7536,3.7637,3.7537,3.7675,3.7587,3.7625,3.7633,3.764,3.7646,3.7534,3.7706,3.8,3.8029,3.7654,3.7651,3.7648,0,3.7198,3.7315,3.7435,3.7459,3.7494,3.7552,3.7569,3.76,3.7643,3.7696,3.7722,3.7787,3.7822,3.7873,3.7853,3.7782,3.7995,3.7893,3.7993,3.7993,3.8039,3.8036,3.8342,3.8067,3.8067,3.8066,3.8065,0,3.7435,3.7546,3.7522,3.7596,3.7717,3.7686,3.7806,3.7816,3.7844,3.7918,3.7865,3.7936,3.7907,3.7976,3.7962,3.8077,3.8094,3.8092,3.8087,3.8096,3.8096,3.8119,3.8104,3.8074,3.8072,3.8071,3.8069,0,3.7671,3.7659,3.7786,3.7808,3.7816,3.7904,3.7923,3.7992,3.7989,3.8083,3.8104,3.8099,3.8177,3.8163,3.825,3.824,3.8384,3.8363,3.8371,3.8366,3.8465,3.8455,3.8795,3.8837,3.8537,3.854,3.8542,0,3.7822,3.7905,3.7936,3.7981,3.8003,3.8077,3.812,3.8092,3.8139,3.8187,3.825,3.8323,3.838,3.8508,3.8512,3.8578,3.8556,3.8671,3.8566,3.8572,3.8556,3.855,3.8557,3.8691,3.8694,3.8697,3.87,0,3.8092,3.8082,3.8145,3.8207,3.8259,3.8306,3.8349,3.8389,3.8365,3.842,3.8499,3.8543,3.8631,3.8703,3.8764,3.8782,3.8737,3.8733,3.8759,3.8768,3.8769,3.8768,3.8426,3.8725,3.8722,3.872,3.8719,3.8718,3.8289,3.8358,3.8391,3.8463,3.8491,3.8532,3.8597,3.8602,3.8667,3.8735,3.8715,3.8805,3.8838,3.8915,3.894,3.9009,3.8966,3.9004,3.9014,3.9023,3.9034,3.8759,3.902,3.9019,3.9018,3.9018,3.9017,0,3.8554,3.8571,3.8637,3.8697,3.8754,3.8707,3.875,3.8801,3.888,3.8915,3.8972,3.9061,3.9132,3.9141,3.9208,3.9261,3.9242,3.9279,3.9274,3.9278,3.907,3.9039,3.9293,3.9293,3.9293,3.9293,3.9293,3.9293,3.8698,3.8813,3.8807,3.8935,3.8952,3.9038,3.9067,3.9103,3.9131,3.9233,3.9291,3.9297,3.9322,3.9389,3.9451,3.9452,3.9478,3.9523,3.9516,3.9321,3.9293,3.9267,3.9238,3.9529,3.953,3.9718,3.972,3.9721]},{"header":{"parameterUnit":"m.s-1","parameterCategory":1,"la1":30.2991,"la2":30.254,"lo1":-89.0895,"lo2":-89.0444,"dy":0.0017,"dx":0.0017,"nx":28,"ny":28,"refTime":"2024-08-11T21:00:00:Z","depth":0,"parameterNumber":3,"parameterNumberName":"V-component_of_WINDS"},"data":[0,0,0,0,0,0,0,0,0,0,0,0,0,0,0,0,0,0,0,0,0,0,0,0,0,0,0,0,0,0,0,0,0,0,0,0,0,0,0,0,0,0,0,0,0,0,0,0,0,0,0,0,0,0,0,0,0,0,-0.3564,-0.3565,0,-0.3614,-0.3615,-0.3615,-0.3658,-0.3659,-0.3659,-0.366,-0.371,-0.3711,-0.3712,0,0,0,0,0,0,0,0,0,0,0,0,0,-0.3507,-0.3508,-0.3564,-0.3565,-0.3566,-0.3614,-0.3615,-0.3615,-0.3658,-0.3659,-0.3659,-0.366,-0.371,-0.3711,-0.3712,0,0,0,0,0,0,0,0,0,0,0,0,0,-0.3542,-0.3508,-0.3564,-0.3593,-0.3596,-0.3614,-0.3615,-0.3616,-0.3658,-0.3659,-0.3659,-0.366,-0.3709,-0.3711,-0.3712,-0.3706,0,0,-0.3716,-0.3717,0,0,0,0,0,0,0,0,-0.354,-0.3544,-0.3588,-0.3591,-0.3594,-0.3631,-0.3613,-0.3646,-0.3658,-0.3634,-0.366,-0.3661,-0.3683,-0.3687,-0.3694,-0.3708,-0.371,-0.3716,-0.3717,-0.3718,-0.3718,0,0,0,0,0,0,0,-0.3537,-0.3542,-0.3584,-0.3589,-0.3592,-0.3603,-0.3609,-0.3619,-0.3654,-0.3636,-0.364,-0.3645,-0.3685,-0.3693,-0.3696,-0.3711,-0.3716,-0.3717,-0.3718,-0.3719,-0.3724,-0.3723,0,0,0,0,0,0,-0.353,-0.354,-0.3582,-0.3586,-0.3568,-0.3604,-0.361,-0.3618,-0.3654,-0.366,-0.3644,-0.3647,-0.369,-0.3694,-0.3698,-0.3694,-0.3718,-0.3719,-0.372,-0.3725,-0.3724,-0.3723,0,0,0,0,0,0,-0.3529,-0.3534,-0.358,-0.3563,-0.357,-0.3604,-0.3613,-0.3619,-0.3627,-0.366,-0.3666,-0.3646,-0.3691,-0.3696,-0.3704,-0.3696,-0.3719,-0.3721,-0.3725,-0.3724,-0.3723,-0.3685,0,0,0,0,0,0,-0.3527,-0.3533,-0.3531,-0.3563,-0.3571,-0.3585,-0.3612,-0.3619,-0.3629,-0.3633,-0.3663,-0.3669,-0.3692,-0.3702,-0.3705,-0.3698,-0.3722,-0.3726,-0.3725,-0.3724,-0.3687,-0.3683,-0.3679,0,0,0,0,0,-0.3525,-0.3517,-0.353,-0.3535,-0.3569,-0.3585,-0.3589,-0.3616,-0.3628,-0.3627,-0.3648,-0.3668,-0.3696,-0.3702,-0.3706,-0.37,-0.3727,-0.3725,-0.3724,-0.3689,-0.3684,-0.3679,0,0,0,0,0,0,-0.3483,-0.3522,-0.3537,-0.354,-0.3559,-0.3592,-0.359,-0.3609,-0.3625,-0.3628,-0.366,-0.3667,-0.3671,-0.3686,-0.3692,-0.3697,-0.3714,-0.3714,-0.3687,-0.3682,-0.3678,-0.3674,-0.3723,0,0,0,0,0,-0.3474,-0.3483,-0.3517,-0.3517,-0.3526,-0.3556,-0.3564,-0.3583,-0.3604,-0.3612,-0.3634,-0.3654,-0.3667,-0.3675,-0.3689,-0.369,-0.3698,-0.3688,-0.3684,-0.368,-0.3679,-0.3682,-0.3678,-0.3718,-0.3718,-0.3718,0,0,-0.3455,-0.3478,-0.3482,-0.3509,-0.3526,-0.3535,-0.3563,-0.3571,-0.3579,-0.3614,-0.3623,-0.364,-0.3664,-0.3668,-0.3671,-0.3681,-0.367,-0.3678,-0.3675,-0.3676,-0.368,-0.3676,-0.3673,-0.3717,-0.3717,-0.3718,0,0,-0.3427,-0.3445,-0.3447,-0.3463,-0.3489,-0.351,-0.351,-0.3541,-0.3554,-0.3564,-0.359,-0.36,-0.3622,-0.3639,-0.365,-0.3629,-0.3649,-0.3633,-0.3612,-0.3614,-0.3611,-0.3609,-0.3602,-0.3599,-0.3632,-0.3632,-0.3632,0,-0.3401,-0.3416,-0.3445,-0.3453,-0.3464,-0.3496,-0.3499,-0.3514,-0.3542,-0.355,-0.356,-0.359,-0.3608,-0.3618,-0.3613,-0.3621,-0.3623,-0.3629,-0.3609,-0.3607,-0.3605,-0.3599,-0.3597,-0.363,-0.363,-0.363,-0.363,0,-0.3383,-0.3394,-0.3392,-0.342,-0.3431,-0.3436,-0.3466,-0.3474,-0.3493,-0.3512,-0.3523,-0.3546,-0.3566,-0.357,-0.3587,-0.3582,-0.3588,-0.3603,-0.3622,-0.3599,-0.3594,-0.3592,-0.3627,-0.3627,-0.3628,-0.3628,0,0,-0.3329,-0.3373,-0.3372,-0.3386,-0.3417,-0.3426,-0.3433,-0.3453,-0.346,-0.3479,-0.3486,-0.3505,-0.352,-0.3533,-0.3553,-0.3555,-0.3538,-0.357,-0.3571,-0.3564,-0.3535,-0.3524,-0.3521,-0.3551,-0.3551,-0.3551,-0.3534,0,-0.3306,-0.332,-0.3347,-0.3353,-0.3364,-0.3395,-0.3402,-0.3422,-0.3441,-0.3453,-0.3474,-0.3487,-0.3506,-0.3514,-0.3517,-0.3539,-0.3533,-0.3541,-0.3559,-0.3559,-0.3552,-0.3518,-0.3506,-0.3488,-0.3532,-0.3532,-0.3531,0,-0.3281,-0.3299,-0.3306,-0.3338,-0.3344,-0.3349,-0.337,-0.3381,-0.3405,-0.3419,-0.3433,-0.3456,-0.3465,-0.3482,-0.3497,-0.3502,-0.3511,-0.3523,-0.3523,-0.3526,-0.3544,-0.3521,-0.3483,-0.3481,-0.3529,-0.3529,-0.3529,0,-0.3242,-0.3268,-0.3276,-0.3286,-0.3323,-0.3326,-0.3342,-0.3367,-0.3377,-0.3396,-0.3404,-0.3423,-0.3434,-0.3449,-0.3476,-0.3485,-0.3488,-0.3506,-0.35,-0.3499,-0.3499,-0.3499,-0.3463,-0.3504,-0.3504,-0.3504,-0.3504,0,-0.3214,-0.3217,-0.3259,-0.3264,-0.3269,-0.33,-0.3304,-0.3323,-0.3345,-0.3354,-0.3383,-0.3391,-0.3426,-0.3439,-0.346,-0.347,-0.3474,-0.3486,-0.3492,-0.3484,-0.3482,-0.349,-0.3492,-0.3503,-0.3503,-0.3504,-0.3504,0,-0.3171,-0.3199,-0.321,-0.3245,-0.3253,-0.3256,-0.3286,-0.3292,-0.3313,-0.3325,-0.3329,-0.3362,-0.3379,-0.3408,-0.3432,-0.3447,-0.3452,-0.3461,-0.3444,-0.3448,-0.344,-0.3441,-0.3409,-0.3407,-0.3448,-0.3447,-0.3447,0,-0.3152,-0.3155,-0.319,-0.3199,-0.3214,-0.3227,-0.3239,-0.327,-0.3281,-0.3309,-0.3312,-0.3331,-0.3348,-0.3373,-0.3399,-0.3419,-0.3429,-0.3417,-0.3432,-0.3425,-0.343,-0.343,-0.3431,-0.3413,-0.3412,-0.3412,-0.3412,0,-0.3115,-0.3129,-0.3144,-0.3165,-0.3178,-0.3196,-0.3215,-0.322,-0.3256,-0.3267,-0.3284,-0.3297,-0.3323,-0.3342,-0.3365,-0.3382,-0.3403,-0.3407,-0.3406,-0.3398,-0.3389,-0.3395,-0.3435,-0.3407,-0.3408,-0.3408,-0.3408,-0.3408,-0.3084,-0.3089,-0.3115,-0.3132,-0.3149,-0.3167,-0.3175,-0.3197,-0.3213,-0.3236,-0.3254,-0.327,-0.3295,-0.3329,-0.3345,-0.3358,-0.3368,-0.3367,-0.3367,-0.3367,-0.3364,-0.3386,-0.3363,-0.3363,-0.3363,-0.3363,-0.3363,0,-0.3049,-0.3068,-0.3083,-0.3109,-0.3122,-0.3141,-0.3164,-0.3174,-0.3188,-0.321,-0.3226,-0.3247,-0.3265,-0.3294,-0.3315,-0.3321,-0.3331,-0.3325,-0.3325,-0.3329,-0.3354,-0.3352,-0.3317,-0.3317,-0.3317,-0.3317,-0.3317,-0.3317,-0.3033,-0.3043,-0.306,-0.3079,-0.3098,-0.3115,-0.3126,-0.3143,-0.316,-0.3182,-0.3198,-0.3217,-0.3241,-0.3265,-0.3283,-0.3291,-0.3298,-0.3289,-0.33,-0.3323,-0.3327,-0.3331,-0.333,-0.329,-0.329,-0.3275,-0.3274,-0.3274]}]]